Regional Weather Roundup
Issued by NWS Little Rock, AR

Home | Current Version | Previous Version | Graphics & Text | Print | Product List | Glossary On
Versions: 1 2 3 4 5 6 7 8 9 10 11 12 13 14 15 16 17 18 19 20 21 22 23 24 25 26 27 28 29 30 31 32 33 34 35 36 37 38 39 40 41 42 43 44 45 46 47 48 49 50
095
ASUS44 KLZK 291812
RWRLZK

WEATHER ROUNDUP FOR ARKANSAS
NATIONAL WEATHER SERVICE LITTLE ROCK AR
100 PM CDT SAT APR 29 2017

NOTE: "FAIR" INDICATES FEW OR NO CLOUDS BELOW 12,000 FEET WITH NO
SIGNIFICANT WEATHER AND/OR OBSTRUCTIONS TO VISIBILITY.

ARZ001-003-010-029-291900-
NORTHWEST ARKANSAS

CITY           SKY/WX    TMP DP  RH WIND       PRES   REMARKS
FAYETTEVILLE   TSTM      69  69 100 NW15      29.67F FOG
6HR MIN TEMP:  65; 6HR MAX TEMP:  75; 6HR PCP:  0.48;

FORT SMITH     LGT RAIN  81  69  67 S12       29.64R
6HR MIN TEMP:  77; 6HR MAX TEMP:  83; 6HR PCP: TRACE;

HARRISON       LGT RAIN  74  70  87 SE16G26   29.72F
6HR MIN TEMP:  64; 6HR MAX TEMP:  78; 6HR PCP:  0.01;

BENTONVILLE    CLOUDY    64  63  94 S7        29.72S THUNDER
6HR MIN TEMP:  63; 6HR MAX TEMP:  73; 6HR PCP:  1.65;

ROGERS         TSTM      64  63  94 W9        29.71F VSB 1
6HR MIN TEMP:  62; 6HR MAX TEMP:  74; 6HR PCP:  0.46;

SILOAM SPGS    CLOUDY    64  61  88 SW8       29.70R THUNDER
6HR MIN TEMP:  63; 6HR MAX TEMP:  75; 6HR PCP:  2.35;

HIGHFILL       TSTM      64  64 100 S7        29.69R VSB 1/2
6HR MIN TEMP:  64; 6HR MAX TEMP:  75; 6HR PCP:  1.56;

SPRINGDALE     TSTM      64  64 100 NW7       29.72R FOG
$$

ARZ004-005-016-291900-
NORTH CENTRAL ARKANSAS

CITY           SKY/WX    TMP DP  RH WIND       PRES   REMARKS
BATESVILLE     CLOUDY    81  70  69 SE15G23   29.80R
6HR MIN TEMP:  73; 6HR MAX TEMP:  81;

FLIPPIN        CLOUDY   N/A N/A N/A S7        29.73R
                                      6HR PCP:  0.02;

MTN HOME       CLOUDY    76  68  76 S9        29.76R
6HR MIN TEMP:  64; 6HR MAX TEMP:  76; 6HR PCP:  0.05;

$$

ARZ040-041-291900-
WEST CENTRAL ARKANSAS

CITY           SKY/WX    TMP DP  RH WIND       PRES   REMARKS
MENA           CLOUDY    77  75  94 SE9G20    29.67F
MOUNT IDA      LGT RAIN  77  72  84 VRB6      29.68F
6HR MIN TEMP:  74; 6HR MAX TEMP:  80; 6HR PCP:  0.05;

$$

ARZ009-017-025-026-028-291900-
NORTHEAST ARKANSAS

CITY           SKY/WX    TMP DP  RH WIND       PRES   REMARKS
JONESBORO      CLOUDY    84  71  65 S21G33    29.81F HX  89
6HR MIN TEMP:  75; 6HR MAX TEMP:  84;

NEWPORT        CLOUDY    82  71  69 MISG      29.79S HX  86
6HR MIN TEMP:  74; 6HR MAX TEMP:  83;

WALNUT RIDGE   CLOUDY    82  70  65 S22G33    29.81R HX  86
6HR MIN TEMP:  73; 6HR MAX TEMP:  82;

BLYTHEVILLE    MOSUNNY   84  71  65 S21G28    29.86F HX  89
6HR MIN TEMP:  75; 6HR MAX TEMP:  85;

$$

ARZ022-023-033-042-044-291900-
CENTRAL ARKANSAS

CITY           SKY/WX    TMP DP  RH WIND       PRES   REMARKS
LITTLE ROCK    CLOUDY    82  73  74 S13G26    29.75F HX  87
6HR MIN TEMP:  76; 6HR MAX TEMP:  82;

N LITTLE ROCK    N/A     81  72  74 S14G36    29.74F HX  85
6HR MIN TEMP:  76; 6HR MAX TEMP:  81;

JACKSONVILLE   MOSUNNY   84  73  68 SE20G31   29.75S HX  91
6HR MIN TEMP:  77; 6HR MAX TEMP:  84;

CONWAY           N/A     82  72  69 S22G32    29.71S HX  87
SEARCY         CLOUDY    82  73  74 S22G31    29.79S HX  87
6HR MIN TEMP:  75; 6HR MAX TEMP:  83;

HOT SPRINGS    CLOUDY    76  74  93 SE8       29.73S
6HR MIN TEMP:  76; 6HR MAX TEMP:  79; 6HR PCP:  0.04;

RUSSELLVILLE   CLOUDY    80  70  71 S12G22    29.69S
6HR MIN TEMP:  76; 6HR MAX TEMP:  80;

CLINTON        PTSUNNY   79  72  78 SE7       29.75S HAZE
$$

ARZ036-291900-
EAST ARKANSAS

CITY           SKY/WX    TMP DP  RH WIND       PRES   REMARKS
WEST MEMPHIS   PTSUNNY   84  72  67 S28G36    29.83F HX  89
6HR MIN TEMP:  74; 6HR MAX TEMP:  85;

$$

ARZ050-053-066-070-073-291900-
SOUTHWEST ARKANSAS

CITY           SKY/WX    TMP DP  RH WIND       PRES   REMARKS
ARKADELPHIA    CLOUDY    79  73  82 VRB7G20   29.71F
6HR MIN TEMP:  77; 6HR MAX TEMP:  81;

CAMDEN         LGT RAIN  77  70  78 S13       29.73F
TEXARKANA      PTSUNNY   81  73  76 S17G31    29.66F HX  86
6HR MIN TEMP:  77; 6HR MAX TEMP:  82; 6HR PCP: TRACE;

EL DORADO      LGT RAIN  79  73  82 SE17G29   29.75F
6HR MIN TEMP:  78; 6HR MAX TEMP:  81; 6HR PCP: TRACE;

DE QUEEN       LGT RAIN  78  74  87 S6        29.63F FOG
6HR MIN TEMP:  75; 6HR MAX TEMP:  78; 6HR PCP: TRACE;

$$

ARZ056-057-069-291900-
SOUTHEAST ARKANSAS

CITY           SKY/WX    TMP DP  RH WIND       PRES   REMARKS
PINE BLUFF     CLOUDY    83  71  67 S24G32    29.76F HX  87
6HR MIN TEMP:  76; 6HR MAX TEMP:  84;

STUTTGART      CLOUDY    84  64  51 S22G30    29.79S HX  86
MONTICELLO     PTSUNNY   86  69  56 S15G32    29.77F HX  90
6HR MIN TEMP:  76; 6HR MAX TEMP:  87;


$$






USA.gov is the U.S. government's official web portal to all federal, state and local government web resources and services.